Homer, AK

5:23 PM AKST on January 16, 2018 (GMT -0900)
Homer

Weather History for PAHO - April, 2012

Change the Weather History Date:

Sunday, April 8, 2012

  Actual Average Record
Temperature  
Mean Temperature 30 °F -  
Max Temperature 37 °F 40 °F 53 °F (1940)
Min Temperature 24 °F 26 °F 7 °F (1949)
Degree Days  
Heating Degree Days 34    
Moisture  
Dew Point 26 °F    
Average Humidity 78    
Maximum Humidity 100    
Minimum Humidity 65    
Precipitation  
Precipitation 0.00 in - - ()
Sea Level Pressure  
Sea Level Pressure 30.33 in    
Wind  
Wind Speed 5 mph (East)    
Max Wind Speed 10 mph    
Max Gust Speed 18 mph    
Visibility 10 miles    
Events      
Averages and records for this station are not official NWS values.
T = Trace of Precipitation, MM = Missing Value Source: NWS Daily Summary

Daily Weather History Graph

Daily Weather History Graph

Search for Another Location

Airport or City:

Trip Planner

Search our weather history database for the weather conditions in past years. The results will help you decide how hot, cold, wet, or windy it might be!

Date:

Astronomy

Apr. 08, 2012 Rise Set
Actual Time 7:08 AM AKDT 9:07 PM AKDT
Civil Twilight 6:24 AM AKDT 9:52 PM AKDT
Nautical Twilight 5:28 AM AKDT 10:48 PM AKDT
Astronomical Twilight 4:18 AM AKDT 12:00 AM AKDT
Moon No Moon Rise 7:26 AM AKDT (4/8)
Length of Visible Light 15h 27m
Length of Day
13h 59m
Waning Gibbous, 94% of the Moon is Illuminated
Apr 8
Waning Gibbous
Apr 13
Last Quarter
Apr 20
New
Apr 29
First Quarter
May 5
Full

Hourly Weather History & Observations

Time (AKDT) Temp. Windchill Dew Point Humidity Pressure Visibility Wind Dir Wind Speed Gust Speed Precip Events Conditions
12:53 AM 26.1 °F 21.9 °F 25.0 °F 96% 30.43 in 10.0 mi ENE 3.5 mph - N/A   Clear
1:53 AM 27.0 °F 23.0 °F 25.0 °F 92% 30.43 in 10.0 mi NE 3.5 mph - N/A   Clear
2:53 AM 24.1 °F 18.2 °F 24.1 °F 100% 30.43 in 10.0 mi NE 4.6 mph - N/A   Clear
3:53 AM 27.0 °F - 25.0 °F 92% 30.42 in 10.0 mi Calm Calm - N/A   Clear
4:53 AM 25.0 °F 20.7 °F 24.1 °F 96% 30.42 in 10.0 mi NNE 3.5 mph - N/A   Clear
5:53 AM 26.1 °F 19.4 °F 24.1 °F 92% 30.42 in 10.0 mi ENE 5.8 mph - N/A   Mostly Cloudy
6:53 AM 28.9 °F 22.8 °F 26.1 °F 89% 30.41 in 10.0 mi NE 5.8 mph - N/A   Scattered Clouds
7:53 AM 30.0 °F 21.1 °F 24.1 °F 79% 30.40 in 10.0 mi ENE 10.4 mph - N/A   Scattered Clouds
8:53 AM 30.9 °F 22.8 °F 26.1 °F 82% 30.39 in 10.0 mi ENE 9.2 mph - N/A   Scattered Clouds
9:53 AM 33.1 °F 26.1 °F 27.0 °F 78% 30.38 in 10.0 mi East 8.1 mph - N/A   Overcast
10:53 AM 36.0 °F 32.1 °F 27.0 °F 70% 30.37 in 10.0 mi ENE 4.6 mph - N/A   Scattered Clouds
11:53 AM 36.0 °F 31.1 °F 27.0 °F 70% 30.36 in 10.0 mi ENE 5.8 mph - N/A   Mostly Cloudy
12:53 PM 36.0 °F 32.1 °F 28.9 °F 76% 30.35 in 10.0 mi South 4.6 mph - N/A   Mostly Cloudy
1:53 PM 36.0 °F 29.6 °F 28.0 °F 73% 30.33 in 10.0 mi SSE 8.1 mph - N/A   Mostly Cloudy
2:53 PM 37.0 °F 31.0 °F 27.0 °F 67% 30.31 in 10.0 mi SE 8.1 mph - N/A   Overcast
3:53 PM 37.0 °F 34.5 °F 26.1 °F 65% 30.29 in 10.0 mi SSE 3.5 mph - N/A   Mostly Cloudy
4:53 PM 37.0 °F 31.6 °F 27.0 °F 67% 30.26 in 10.0 mi SE 6.9 mph - N/A   Mostly Cloudy
5:53 PM 37.0 °F 32.4 °F 27.0 °F 67% 30.25 in 10.0 mi Variable 5.8 mph - N/A   Overcast
6:53 PM 36.0 °F 29.6 °F 26.1 °F 67% 30.24 in 10.0 mi SE 8.1 mph - N/A   Mostly Cloudy
7:53 PM 36.0 °F 31.1 °F 28.0 °F 73% 30.23 in 10.0 mi SSE 5.8 mph - N/A   Overcast
8:53 PM 36.0 °F 31.1 °F 26.1 °F 67% 30.22 in 10.0 mi SE 5.8 mph - N/A   Overcast
9:53 PM 35.1 °F 31.0 °F 27.0 °F 72% 30.22 in 10.0 mi Variable 4.6 mph - N/A   Overcast
10:53 PM 35.1 °F 31.0 °F 27.0 °F 72% 30.22 in 10.0 mi SSE 4.6 mph - N/A   Overcast
11:53 PM 35.1 °F 28.6 °F 25.0 °F 67% 30.22 in 10.0 mi ESE 8.1 mph 18.4 mph N/A   Overcast